Temperature
-1 -0 -1 -1 -2 -2 -3 -2 -2 -1 -1 0 -1 -1 -1 -1 -2 -3 -3 -4 -4 -4 -4 -4 -4 -4 -5 -5 -5 -5 -5 -5 -4 -4 -4 -4 -4 -3 -3 -3 -3 -3 -3 -2
-2 -1 -1 -1 -1 -2 -2 -2 -2 -2 -1 -1 -1 -2 -2 -3 -3 -4 -4 -4 -4 -5 -5 -5 -5 -5 -5 -5 -5 -5 -5 -5 -5 -5 -5 -4 -4 -4 -4 -4 -3 -3 -3 -3
-2 -2 -2 -3 -2 -2 -2 -3 -3 -2 -2 -2 -3 -3 -3 -3 -4 -4 -5 -5 -5 -5 -5 -5 -5 -6 -6 -6 -6 -6 -6 -6 -6 -6 -5 -5 -5 -5 -5 -5 -4 -4 -4 -4
-2 -3 -3 -1 -2 -2 -3 -3 -3 -3 -4 -4 -4 -4 -4 -4 -5 -5 -5 -5 -5 -5 -6 -6 -6 -6 -6 -6 -6 -6 -6 -6 -6 -6 -6 -6 -6 -6 -6 -5 -5 -5 -5 -5
-3 -3 -2 -1 -3 -4 -4 -4 -4 -4 -4 -4 -5 -5 -5 -5 -5 -5 -5 -6 -6 -6 -6 -6 -7 -7 -7 -7 -7 -7 -7 -7 -7 -7 -7 -7 -6 -6 -6 -6 -6 -6 -6 -5
-3 -3 -3 -2 -4 -4 -4 -5 -5 -5 -6 -6 -6 -6 -6 -5 -6 -6 -6 -6 -6 -7 -7 -7 -7 -7 -7 -7 -7 -7 -7 -7 -7 -7 -7 -7 -7 -7 -7 -7 -7 -6 -6 -6
-4 -4 -3 -4 -5 -4 -4 -4 -5 -5 -6 -6 -7 -7 -6 -6 -7 -7 -7 -7 -7 -7 -7 -7 -8 -8 -8 -8 -8 -8 -8 -8 -8 -8 -8 -8 -8 -8 -8 -7 -7 -7 -7 -6
-4 -4 -3 -6 -6 -6 -5 -5 -5 -6 -6 -7 -7 -7 -7 -7 -7 -8 -8 -8 -8 -8 -8 -8 -8 -8 -8 -8 -8 -9 -9 -8 -8 -8 -8 -8 -8 -8 -8 -8 -8 -8 -7 -7
-4 -4 -5 -6 -6 -6 -6 -6 -6 -7 -7 -7 -8 -8 -8 -8 -8 -8 -8 -9 -9 -9 -9 -9 -9 -9 -9 -9 -9 -9 -9 -9 -9 -9 -9 -9 -9 -9 -9 -9 -9 -9 -8 -8
-6 -7 -7 -6 -6 -6 -7 -7 -7 -7 -8 -8 -9 -9 -9 -9 -9 -9 -9 -9 -9 -9 -9 -9 -9 -10 -10 -10 -10 -10 -10 -9 -9 -9 -9 -9 -9 -9 -9 -9 -9 -9 -9 -9
-8 -8 -7 -7 -7 -7 -7 -8 -8 -8 -8 -9 -9 -9 -10 -10 -10 -10 -10 -10 -10 -10 -10 -10 -10 -10 -10 -10 -10 -10 -10 -10 -10 -10 -10 -10 -10 -10 -10 -10 -10 -10 -10 -9
-7 -8 -8 -8 -7 -7 -8 -8 -8 -9 -9 -9 -10 -10 -10 -10 -10 -10 -10 -10 -10 -10 -11 -11 -11 -11 -11 -11 -11 -11 -11 -11 -11 -11 -11 -11 -11 -10 -10 -10 -10 -10 -10 -10
-8 -8 -8 -8 -8 -8 -9 -9 -9 -9 -9 -10 -10 -10 -10 -11 -11 -11 -11 -11 -11 -11 -11 -11 -11 -11 -11 -11 -11 -11 -11 -11 -11 -11 -11 -11 -11 -11 -11 -11 -11 -10 -10 -10
-8 -8 -9 -9 -9 -9 -9 -9 -10 -10 -10 -10 -10 -11 -11 -11 -11 -11 -11 -12 -12 -12 -12 -12 -12 -12 -12 -12 -12 -12 -12 -12 -12 -12 -12 -12 -12 -12 -12 -12 -11 -11 -11 -11
-9 -9 -9 -10 -10 -10 -10 -10 -10 -11 -11 -11 -11 -11 -12 -12 -12 -12 -12 -12 -12 -12 -12 -12 -12 -12 -12 -12 -12 -12 -12 -12 -12 -12 -12 -12 -12 -12 -12 -12 -12 -12 -11 -11
-10 -10 -10 -10 -10 -11 -11 -11 -11 -11 -11 -12 -12 -12 -12 -12 -12 -12 -12 -12 -12 -13 -13 -13 -13 -13 -13 -13 -13 -13 -13 -13 -13 -13 -13 -13 -13 -13 -13 -13 -13 -12 -12 -12
-11 -11 -11 -11 -11 -11 -11 -11 -12 -12 -12 -12 -12 -12 -13 -13 -13 -13 -13 -13 -13 -13 -13 -13 -13 -13 -13 -14 -14 -14 -13 -13 -14 -14 -14 -13 -13 -13 -13 -13 -13 -13 -13 -13
-10 -11 -11 -11 -11 -12 -12 -12 -12 -12 -12 -12 -13 -13 -13 -13 -13 -13 -13 -14 -14 -13 -14 -14 -14 -14 -14 -14 -14 -14 -14 -14 -14 -14 -14 -14 -14 -14 -14 -14 -14 -14 -13 -13
-11 -11 -11 -12 -12 -12 -12 -12 -12 -12 -13 -13 -13 -13 -13 -14 -14 -14 -14 -14 -14 -14 -14 -14 -14 -14 -14 -14 -14 -14 -14 -14 -14 -14 -14 -15 -15 -14 -14 -14 -14 -14 -14 -14
-11 -11 -12 -12 -12 -12 -12 -13 -13 -13 -13 -13 -14 -14 -14 -14 -14 -14 -14 -14 -14 -15 -15 -15 -15 -15 -15 -15 -15 -15 -15 -15 -15 -15 -15 -15 -15 -15 -15 -15 -15 -15 -15 -15
-12 -12 -12 -12 -12 -13 -13 -13 -13 -13 -13 -14 -14 -14 -14 -14 -14 -15 -15 -15 -15 -15 -15 -15 -15 -15 -15 -15 -15 -15 -15 -15 -15 -15 -16 -16 -16 -16 -16 -16 -16 -16 -15 -15
-12 -12 -13 -13 -13 -13 -13 -13 -14 -14 -14 -14 -14 -14 -15 -15 -15 -15 -15 -15 -15 -15 -15 -15 -15 -16 -16 -16 -15 -16 -16 -16 -16 -16 -16 -16 -16 -16 -16 -16 -16 -16 -16 -16
-13 -13 -13 -13 -13 -14 -14 -14 -14 -14 -14 -14 -14 -15 -15 -15 -15 -15 -15 -15 -16 -16 -16 -16 -16 -16 -16 -16 -16 -16 -16 -16 -16 -16 -16 -17 -17 -17 -17 -17 -17 -17 -17 -16
-13 -13 -13 -14 -14 -14 -14 -14 -14 -14 -15 -15 -15 -15 -15 -15 -16 -16 -16 -16 -16 -16 -16 -16 -16 -16 -16 -16 -16 -16 -16 -17 -17 -17 -17 -17 -17 -17 -17 -17 -17 -17 -17 -17
-14 -14 -14 -14 -14 -14 -15 -15 -15 -15 -15 -15 -15 -16 -16 -16 -16 -16 -16 -16 -16 -16 -16 -16 -16 -16 -16 -16 -17 -17 -17 -17 -17 -17 -17 -17 -17 -17 -17 -17 -17 -17 -17 -17
-14 -14 -14 -15 -15 -15 -15 -15 -15 -15 -16 -16 -16 -16 -16 -16 -16 -16 -16 -17 -17 -17 -17 -17 -17 -17 -17 -17 -17 -17 -17 -17 -17 -17 -17 -17 -17 -17 -18 -17 -17 -17 -17 -17
-14 -15 -15 -15 -15 -15 -15 -16 -16 -16 -16 -16 -16 -16 -16 -16 -17 -17 -17 -17 -17 -17 -17 -17 -17 -17 -17 -17 -17 -17 -17 -17 -17 -17 -18 -18 -18 -18 -18 -18 -17 -17 -17 -17
Wind_Speed
10 10 7 8 9 9 11 12 12 13 14 14 8 6 5 4 4 4 4 4 4 4 3 3 3 2 2 3 3 3 3 4 4 4 3 3 2 3 3 3 2 2 1 2
9 9 9 12 13 13 14 13 15 16 17 11 5 3 4 4 4 5 5 5 5 5 5 4 4 4 3 3 3 3 3 4 4 4 4 3 3 3 3 3 3 2 2 2
7 5 7 12 14 15 11 11 10 15 14 7 6 5 5 4 4 5 6 6 6 6 5 4 4 4 4 4 3 3 3 4 4 4 4 4 4 3 3 3 3 2 3 2
5 4 11 9 3 7 10 11 10 9 7 5 5 5 4 3 3 5 6 7 6 6 5 4 3 3 3 3 3 3 3 3 4 4 4 4 4 4 4 3 3 3 3 3
4 7 11 6 3 4 6 8 7 9 8 6 4 4 4 2 2 4 5 6 6 5 4 3 2 2 2 3 3 3 3 4 4 4 4 4 4 4 4 4 4 4 4 4
6 6 8 6 2 1 1 6 3 4 5 4 2 3 4 3 4 5 5 5 4 3 2 2 2 1 2 3 3 4 4 4 4 4 4 5 5 5 4 4 4 4 4 4
9 9 9 3 3 3 4 6 1 1 2 2 3 5 4 4 4 4 4 4 3 2 2 2 2 1 2 3 4 4 4 4 4 4 5 5 5 4 4 4 4 4 5 5
7 9 10 3 4 6 5 1 1 1 1 3 4 4 3 4 4 4 4 4 3 3 3 3 2 1 3 4 4 4 4 4 4 4 4 4 4 4 4 4 4 5 5 5
8 8 2 4 4 3 1 1 2 2 2 2 4 4 4 4 4 4 4 3 3 3 4 3 2 2 4 5 3 3 4 4 4 4 4 4 4 4 4 3 4 4 4 5
6 7 5 4 3 2 2 3 3 3 3 3 4 5 5 5 4 4 3 3 3 3 4 4 4 3 4 4 3 3 4 4 4 4 4 4 4 4 3 3 4 5 5 5
7 6 4 4 4 3 3 2 3 3 3 4 4 5 5 5 5 4 4 3 3 3 4 5 4 4 4 4 3 3 4 4 4 4 4 3 3 3 4 4 4 5 4 4
8 5 4 3 2 1 2 3 3 3 4 3 3 4 4 5 4 4 4 3 3 4 4 5 4 5 5 4 3 4 4 3 3 3 3 3 3 4 6 6 8 9 8 6
4 2 3 4 3 2 2 3 3 3 4 4 4 3 3 4 4 4 3 3 4 4 4 4 4 5 5 4 4 4 4 4 3 3 3 3 3 3 4 5 7 8 8 8
3 1 3 3 3 3 3 3 3 3 3 3 3 3 3 3 4 4 4 4 4 4 4 4 4 5 5 4 4 4 4 5 4 3 3 3 3 3 3 4 4 5 6 8
2 2 3 3 3 3 2 2 2 3 3 3 2 2 3 3 4 4 4 4 3 3 3 3 4 5 4 3 4 4 4 3 3 3 3 3 3 3 3 3 4 4 4 6
1 1 2 3 3 3 3 2 3 4 3 3 3 3 3 3 3 4 3 2 2 3 4 3 5 5 4 3 4 4 3 5 4 3 3 2 2 3 3 3 3 4 4 4
2 3 3 3 4 4 4 3 4 4 3 3 3 3 2 2 2 3 3 2 2 3 3 4 5 4 4 3 3 3 3 4 5 4 3 3 2 3 3 3 3 3 4 5
4 4 4 4 4 4 4 3 3 3 3 3 2 2 2 2 3 3 3 3 3 3 4 4 3 3 3 3 3 3 3 3 2 3 3 3 3 2 3 3 3 4 4 5
2 2 3 3 3 3 3 3 3 2 2 1 1 2 2 3 3 2 2 2 3 4 4 3 5 3 3 4 4 2 2 3 3 3 3 4 4 3 3 3 3 3 4 4
1 1 1 2 1 1 2 2 1 1 1 1 1 2 2 3 2 2 2 2 3 3 3 4 3 2 3 3 4 2 2 2 2 3 3 3 3 3 3 3 3 3 4 4
2 1 1 1 1 1 1 1 1 1 1 1 1 2 3 3 2 2 2 3 3 3 3 4 3 2 3 3 4 2 2 2 2 2 3 3 3 3 3 3 4 4 4 4
2 1 1 1 1 1 1 1 1 1 1 1 1 1 2 2 2 2 2 2 3 5 4 2 2 4 5 4 2 1 2 2 2 2 2 3 3 3 3 4 4 4 4 4
1 1 1 1 1 1 1 1 1 1 1 1 1 1 2 2 2 2 3 2 2 5 4 3 5 7 6 3 2 2 2 2 3 2 3 3 3 3 3 4 4 4 4 4
1 1 1 1 1 1 1 2 1 1 1 2 2 2 2 2 2 2 2 4 6 6 3 5 7 7 6 2 2 2 2 3 3 3 3 3 3 3 4 4 4 4 4 5
1 1 1 0 1 1 1 1 1 1 1 1 2 2 1 1 2 3 3 3 6 6 4 5 7 7 4 2 2 2 3 3 4 3 3 3 3 4 4 4 4 4 4 5
1 1 1 1 1 1 1 1 1 1 1 2 2 2 2 2 2 2 2 3 4 6 4 3 4 5 3 3 3 3 3 4 5 4 4 4 4 4 4 4 5 5 5 5
1 1 1 1 1 1 1 1 1 2 2 2 3 3 3 3 2 3 3 3 3 3 3 3 3 3 3 3 3 3 3 3 4 4 4 4 4 4 5 5 5 6 6 6
Wind_Direction
260 271 260 245 238 218 219 230 243 258 260 271 275 276 287 291 304 307 304 305 305 297 291 296 304 305 304 307 318 321 320 314 309 313 313 311 308 310 309 304 289 274 258 246
265 257 258 261 247 233 234 239 248 262 270 272 283 296 301 305 303 298 294 293 297 301 299 295 294 296 299 301 309 312 307 306 313 321 324 322 316 311 307 295 292 288 275 261
265 264 284 261 237 226 230 227 228 246 257 275 286 284 282 285 290 288 296 297 291 286 282 282 280 286 281 287 301 302 303 312 316 319 322 324 323 321 312 303 293 284 276 266
267 282 251 248 205 203 222 239 233 244 262 270 268 275 269 272 287 296 301 299 295 290 287 286 285 292 294 296 291 293 298 306 314 317 316 318 319 313 312 310 298 287 282 274
235 253 267 259 218 191 213 257 237 237 257 273 301 310 281 297 308 289 289 293 290 282 276 276 276 284 291 293 294 293 293 298 304 306 307 310 305 303 305 302 293 286 280 270
229 243 252 252 199 162 125 271 268 225 249 266 317 282 273 329 330 316 305 303 302 307 310 295 289 285 280 286 287 285 287 291 296 297 295 294 293 296 297 293 286 283 281 272
233 245 259 247 193 139 196 254 308 215 244 240 234 240 277 317 323 320 317 319 326 330 314 292 294 289 273 276 272 280 289 292 293 293 290 288 291 294 292 290 291 287 285 278
213 232 249 171 149 189 222 295 356 324 273 255 260 280 300 314 316 319 322 325 333 327 312 310 304 287 282 276 283 294 295 292 291 290 289 291 291 291 292 290 290 288 285 278
210 226 244 165 192 214 178 252 280 287 278 262 271 281 294 302 304 302 302 306 309 302 303 308 303 285 281 289 298 296 290 288 291 290 287 287 283 284 284 279 277 278 281 280
251 257 251 224 227 249 240 244 270 275 275 266 263 274 285 288 290 289 294 297 302 304 302 304 304 297 288 298 299 290 286 289 293 292 292 291 286 279 276 274 273 273 275 281
254 269 282 255 234 242 262 267 274 281 271 260 261 275 277 283 283 281 293 298 298 290 290 294 304 305 307 308 302 293 289 286 289 288 287 286 283 277 279 273 275 276 271 268
241 229 216 244 244 268 263 269 270 276 285 278 260 266 279 283 283 285 292 300 303 299 297 300 305 303 307 305 294 289 290 287 285 285 284 283 285 295 293 293 297 293 285 277
234 253 245 262 273 272 268 278 278 266 265 275 273 265 273 282 288 289 291 293 289 288 292 298 302 302 305 307 301 290 286 288 286 282 283 287 289 291 301 308 306 307 304 296
216 226 266 266 269 288 284 283 281 278 273 266 270 277 274 279 287 286 282 282 283 286 290 296 300 300 304 304 300 295 291 290 292 285 283 284 285 288 292 301 311 313 313 311
236 221 232 262 285 286 286 289 292 289 291 292 283 275 273 275 279 282 284 289 296 295 296 300 300 302 311 305 299 296 294 291 291 292 290 290 293 297 298 299 304 310 318 320
281 281 251 256 263 278 286 280 276 281 286 289 290 283 278 274 280 287 289 285 287 291 294 298 297 303 313 308 302 300 298 301 308 306 304 307 306 303 303 306 310 314 315 314
224 258 258 266 270 279 273 263 259 268 274 278 281 288 293 295 302 301 303 297 287 287 289 289 293 303 306 302 296 300 305 305 308 312 311 306 303 302 303 303 305 307 308 312
230 240 242 247 250 263 276 273 266 267 269 272 280 289 290 281 281 291 301 310 315 311 299 288 291 299 305 304 298 299 304 306 308 305 309 308 308 308 307 306 306 309 317 320
273 267 265 257 245 243 258 271 273 266 266 269 270 273 276 277 279 287 302 313 312 309 313 309 318 331 317 308 315 299 303 306 312 311 309 307 315 315 312 309 309 311 315 319
311 303 286 282 272 240 254 269 276 283 280 262 268 287 296 296 295 296 303 300 288 282 290 305 312 308 302 303 314 303 301 303 308 313 316 313 309 311 311 308 307 308 310 311
304 302 300 304 309 308 273 257 257 278 286 263 251 266 280 295 300 298 301 307 313 315 313 323 331 307 303 306 311 315 306 303 304 304 307 309 310 310 310 311 307 306 308 311
304 302 302 307 316 325 332 326 267 265 284 280 268 270 289 305 311 309 285 274 297 318 331 320 310 307 315 324 332 321 309 305 300 299 298 298 300 303 306 308 308 307 307 309
307 307 311 315 308 321 337 331 289 264 263 269 272 273 276 285 293 296 305 302 306 315 329 312 313 318 330 353 342 318 307 302 298 293 288 288 289 290 292 296 298 301 303 303
332 330 321 338 22 6 328 322 315 300 287 292 286 268 264 293 306 291 283 306 317 320 324 317 323 327 339 357 330 315 306 299 292 285 281 280 280 281 283 287 290 293 294 295
319 318 348 16 333 296 295 324 339 329 320 317 315 309 294 277 277 296 304 307 313 323 323 321 324 330 342 327 312 304 299 289 284 285 283 287 286 286 285 285 285 287 289 291
328 330 309 291 295 306 317 321 318 318 326 326 327 330 326 315 303 301 303 305 305 318 324 319 317 319 319 310 304 300 296 300 306 304 291 287 284 283 284 285 285 285 285 285
358 358 351 346 346 340 333 319 308 310 311 305 312 316 316 317 317 319 316 314 314 313 311 311 311 308 307 306 302 297 294 291 289 287 287 284 282 281 280 279 281 282 283 284
Height
1499 1496 1498 1499 1499 1502 1503 1499 1496 1484 1480 1474 1474 1473 1473 1472 1471 1470 1469 1468 1466 1465 1464 1463 1462 1461 1460 1459 1459 1458 1457 1456 1455 1454 1453 1453 1452 1452 1452 1452 1453 1453 1453 1454
1500 1495 1495 1493 1490 1491 1492 1491 1487 1481 1476 1471 1471 1471 1470 1469 1469 1467 1466 1464 1463 1462 1461 1459 1458 1458 1457 1456 1455 1455 1454 1453 1452 1451 1450 1449 1449 1448 1448 1449 1449 1449 1449 1450
1496 1493 1493 1488 1479 1480 1480 1478 1479 1477 1471 1468 1469 1468 1467 1467 1466 1465 1463 1462 1460 1459 1457 1456 1455 1454 1453 1452 1452 1451 1450 1449 1449 1448 1446 1446 1445 1445 1444 1444 1444 1444 1445 1445
1495 1496 1492 1470 1467 1467 1470 1470 1470 1468 1466 1466 1466 1465 1464 1464 1463 1462 1460 1458 1456 1455 1454 1453 1452 1451 1450 1449 1449 1448 1447 1446 1445 1444 1443 1443 1442 1441 1441 1441 1441 1441 1441 1441
1493 1490 1476 1466 1466 1467 1469 1467 1464 1464 1463 1463 1463 1462 1461 1460 1460 1459 1457 1455 1453 1452 1450 1449 1448 1448 1447 1446 1446 1445 1444 1443 1442 1441 1441 1440 1439 1438 1438 1437 1437 1437 1437 1436
1488 1487 1479 1462 1464 1462 1466 1467 1460 1459 1460 1461 1461 1463 1459 1457 1457 1455 1453 1452 1450 1448 1447 1446 1445 1444 1444 1443 1442 1442 1441 1440 1439 1439 1438 1437 1436 1435 1435 1434 1433 1433 1432 1432
1484 1481 1468 1463 1462 1463 1469 1461 1458 1457 1457 1458 1459 1459 1457 1455 1453 1452 1450 1449 1447 1445 1444 1443 1442 1441 1440 1440 1439 1439 1438 1437 1436 1436 1435 1434 1432 1432 1431 1430 1429 1429 1428 1427
1478 1476 1466 1461 1461 1462 1459 1457 1456 1456 1456 1456 1455 1454 1453 1451 1450 1448 1447 1445 1444 1442 1441 1440 1439 1438 1437 1436 1436 1436 1435 1433 1433 1432 1431 1430 1429 1428 1428 1427 1425 1424 1424 1423
1465 1461 1456 1456 1455 1455 1455 1455 1454 1454 1454 1453 1452 1451 1450 1448 1447 1445 1444 1442 1441 1439 1438 1437 1436 1435 1434 1433 1433 1432 1431 1430 1429 1428 1427 1427 1426 1425 1424 1423 1422 1421 1420 1419
1459 1454 1453 1453 1452 1452 1452 1452 1452 1451 1451 1450 1449 1447 1446 1445 1443 1442 1440 1439 1438 1436 1435 1434 1433 1432 1431 1430 1429 1428 1427 1426 1425 1425 1424 1423 1422 1421 1420 1419 1418 1417 1417 1416
1455 1452 1451 1449 1449 1449 1449 1449 1448 1448 1447 1446 1445 1444 1443 1441 1439 1438 1437 1436 1435 1433 1432 1431 1430 1429 1428 1427 1426 1424 1424 1423 1422 1421 1420 1419 1419 1418 1417 1416 1416 1415 1413 1413
1448 1446 1447 1446 1446 1446 1445 1445 1444 1444 1443 1442 1441 1440 1439 1438 1436 1435 1433 1432 1431 1430 1429 1427 1426 1425 1424 1424 1422 1421 1420 1419 1418 1418 1417 1416 1415 1414 1413 1413 1412 1411 1410 1409
1442 1442 1442 1442 1442 1442 1442 1441 1441 1440 1439 1438 1437 1437 1435 1434 1433 1431 1430 1429 1428 1426 1425 1424 1423 1422 1421 1420 1419 1418 1417 1416 1415 1415 1414 1413 1411 1410 1409 1408 1408 1407 1406 1405
1438 1439 1439 1438 1439 1438 1438 1437 1436 1436 1435 1434 1434 1433 1431 1430 1429 1428 1427 1425 1424 1423 1422 1421 1419 1418 1418 1417 1416 1415 1414 1413 1412 1411 1410 1410 1409 1407 1406 1405 1403 1402 1402 1401
1435 1435 1435 1435 1435 1435 1434 1433 1432 1432 1431 1430 1430 1429 1428 1426 1425 1424 1423 1422 1421 1419 1418 1417 1416 1415 1415 1414 1413 1412 1411 1410 1409 1408 1408 1407 1406 1405 1404 1402 1401 1400 1398 1398
1432 1432 1432 1432 1432 1431 1430 1430 1429 1428 1427 1427 1426 1425 1424 1423 1422 1421 1420 1419 1417 1416 1415 1414 1413 1412 1412 1411 1410 1409 1408 1408 1407 1406 1405 1404 1403 1402 1401 1400 1399 1397 1396 1395
1429 1429 1429 1429 1428 1428 1427 1426 1426 1425 1424 1423 1422 1422 1420 1419 1418 1417 1417 1416 1414 1413 1413 1412 1411 1410 1409 1409 1408 1407 1406 1405 1404 1403 1402 1401 1401 1400 1399 1398 1396 1395 1394 1393
1426 1426 1426 1426 1425 1424 1424 1423 1423 1422 1421 1420 1419 1418 1417 1416 1415 1414 1414 1413 1412 1411 1410 1409 1408 1408 1407 1406 1405 1404 1403 1403 1402 1401 1400 1399 1398 1397 1396 1395 1394 1392 1391 1390
1423 1423 1423 1422 1422 1422 1421 1420 1420 1419 1418 1418 1417 1416 1415 1414 1413 1412 1411 1410 1409 1408 1408 1407 1406 1406 1405 1404 1403 1402 1401 1401 1400 1399 1398 1397 1396 1395 1393 1392 1391 1390 1389 1388
1421 1421 1420 1420 1419 1419 1418 1418 1417 1416 1416 1415 1414 1414 1413 1412 1411 1410 1409 1408 1407 1407 1406 1405 1404 1403 1403 1402 1401 1400 1399 1398 1397 1396 1395 1394 1393 1392 1391 1389 1388 1387 1386 1385
1419 1419 1418 1418 1417 1416 1416 1415 1415 1414 1413 1413 1412 1411 1411 1410 1409 1408 1407 1406 1406 1405 1404 1403 1402 1401 1401 1400 1399 1398 1397 1396 1394 1393 1392 1391 1390 1389 1388 1387 1386 1385 1384 1382
1417 1417 1416 1416 1415 1414 1414 1413 1413 1412 1411 1411 1410 1410 1409 1408 1407 1406 1406 1405 1404 1403 1402 1401 1400 1400 1399 1398 1397 1396 1394 1393 1392 1391 1390 1388 1387 1386 1385 1384 1383 1382 1381 1380
1416 1415 1415 1414 1413 1412 1412 1412 1411 1410 1410 1409 1409 1408 1407 1406 1405 1405 1403 1403 1402 1401 1400 1399 1398 1398 1397 1396 1394 1393 1392 1391 1389 1388 1387 1386 1384 1383 1382 1381 1380 1379 1378 1377
1414 1414 1413 1413 1412 1411 1410 1410 1410 1409 1408 1408 1407 1407 1406 1405 1404 1403 1402 1401 1400 1399 1398 1397 1396 1395 1394 1393 1391 1390 1389 1388 1386 1385 1384 1383 1381 1380 1379 1378 1377 1376 1375 1373
1413 1412 1412 1411 1410 1410 1409 1409 1408 1408 1407 1406 1406 1405 1404 1403 1402 1401 1400 1399 1398 1397 1396 1395 1394 1392 1391 1390 1388 1387 1386 1385 1383 1382 1381 1379 1378 1377 1375 1374 1373 1372 1371 1370
1412 1411 1410 1410 1410 1409 1408 1408 1407 1406 1406 1405 1404 1404 1403 1402 1400 1399 1398 1397 1396 1395 1393 1392 1391 1389 1388 1387 1386 1384 1383 1382 1380 1379 1377 1376 1374 1373 1372 1371 1370 1369 1368 1367
1411 1410 1409 1409 1409 1408 1408 1407 1406 1405 1405 1404 1403 1402 1401 1400 1399 1397 1396 1395 1394 1392 1391 1389 1388 1387 1385 1384 1383 1381 1380 1378 1377 1375 1374 1373 1371 1370 1368 1367 1366 1365 1364 1363